Location: Eurasberg
(48.3353°N, 11.0839°E)
Time: 20:40:33
(UTC+00:00)

Cosmos 921 Rocket - Pass Details

Date: 18 January 2026
Orbit: 564 x 620 km, 75.8° (Epoch: 13 February)

Event Time Altitude Azimuth Distance (km) Brightness Sun altitude
Exits shadow 05:21:47 30° 283° (WNW) 1,073 3.7 -15.9°
Maximum altitude 05:22:20 31° 299° (WNW) 1,046 3.7 -15.8°
Drops below altitude 10° 05:26:06 10° 2° (N) 1,900 5.4 -15.2°
Sets 05:28:30 0° 13° (NNE) 2,794 6.4 -14.8°
